DW2921 Weather Reports


time (UTC)temp
C
wind
direction
speed
KPH
gust
KPH
rain 1hr
cm
rain 24hr
cm
rain mn
cm
humidity
%
barometer
mb
20260509022101 16 233 0.0 0.0 0.00 0.00 0.00 41 1013.0
20260509015100 17 233 0.0 0.0 0.00 0.00 0.00 41 1013.0
20260509014100 17 233 0.0 0.0 0.00 0.00 0.00 41 1013.0
20260509013100 17 233 0.0 0.0 0.00 0.00 0.00 41 1013.0
20260509012100 17 233 0.0 0.0 0.00 0.00 0.00 41 1013.0
20260509011100 17 233 0.0 0.0 0.00 0.00 0.00 41 1013.0
20260509005100 18 233 0.0 0.0 0.00 0.00 0.00 41 1013.0
20260509004100 18 233 0.0 0.0 0.00 0.00 0.00 41 1013.0
20260509003100 18 233 0.0 0.0 0.00 0.00 0.00 41 1013.0
20260509002100 18 233 0.0 1.6 0.00 0.00 0.00 41 1013.0
20260509001100 19 231 0.0 3.2 0.00 0.00 0.00 41 1013.0
20260508235100 20 231 0.0 3.2 0.00 0.00 0.00 41 1013.0
20260508234100 20 231 3.2 8.0 0.00 0.00 0.00 41 1013.0
20260508233100 20 225 0.0 4.8 0.00 0.00 0.00 41 1013.0
20260508232100 21 225 1.6 8.0 0.00 0.00 0.00 41 1013.0
20260508231100 21 225 3.2 11.3 0.00 0.00 0.00 41 1013.0
20260508224101 21 242 6.4 11.3 0.00 0.00 0.00 41 1013.0
20260508223101 21 233 6.4 11.3 0.00 0.00 0.00 41 1013.0
20260508222100 21 278 4.8 12.9 0.00 0.00 0.00 41 1013.0
20260508221100 21 220 9.7 19.3 0.00 0.00 0.00 41 1013.0
20260508215100 21 269 9.7 19.3 0.00 0.00 0.00 41 1013.0
20260508214100 21 234 9.7 16.1 0.00 0.00 0.00 41 1013.0
20260508213101 22 212 9.7 19.3 0.00 0.00 0.00 41 1013.0
20260508212101 22 259 6.4 19.3 0.00 0.00 0.00 41 1013.0
20260508205100 22 174 1.6 19.3 0.00 0.00 0.00 41 1013.0
20260508204101 22 188 3.2 12.9 0.00 0.00 0.00 41 1013.0
20260508203101 23 260 4.8 14.5 0.00 0.00 0.00 41 1013.0
20260508202101 22 191 3.2 11.3 0.00 0.00 0.00 41 1013.0
20260508201100 23 236 4.8 19.3 0.00 0.00 0.00 41 1013.0
20260508194101 22 238 9.7 19.3 0.00 0.00 0.00 41 1013.0
20260508193100 22 200 8.0 14.5 0.00 0.00 0.00 41 1013.0
20260508192100 22 304 4.8 20.9 0.00 0.00 0.00 41 1013.0
20260508185101 22 225 6.4 12.9 0.00 0.00 0.00 41 1013.0
20260508184100 21 250 4.8 11.3 0.00 0.00 0.00 41 1013.0
20260508183100 21 166 3.2 11.3 0.00 0.00 0.00 41 1013.0
20260508182100 21 216 4.8 14.5 0.00 0.00 0.00 41 1013.0
20260508181101 21 207 4.8 9.7 0.00 0.00 0.00 41 1013.0
20260508175100 21 208 3.2 14.5 0.00 0.00 0.00 41 1013.0
20260508174101 21 202 8.0 11.3 0.00 0.00 0.00 41 1013.0
20260508173100 21 61 4.8 9.7 0.00 0.00 0.00 41 1013.0
20260508172100 20 225 3.2 9.7 0.00 0.00 0.00 41 1013.0
20260508171100 21 90 3.2 8.0 0.00 0.00 0.00 41 1013.0
20260508165101 20 101 4.8 9.7 0.00 0.00 0.00 41 1013.0
20260508164100 19 120 1.6 8.0 0.00 0.00 0.00 41 1013.0
20260508163100 18 123 3.2 9.7 0.00 0.00 0.00 41 1013.0
20260508162101 18 249 4.8 8.0 0.00 0.00 0.00 41 1013.0
20260508161100 18 100 3.2 8.0 0.00 0.00 0.00 41 1013.0
20260508154101 16 2 3.2 8.0 0.00 0.00 0.00 41 1013.0
20260508153101 16 348 3.2 9.7 0.00 0.00 0.00 41 1013.0
20260508152101 16 55 4.8 8.0 0.00 0.00 0.00 41 1013.0
20260508151101 16 67 4.8 8.0 0.00 0.00 0.00 41 1013.0
20260508145100 15 153 1.6 4.8 0.00 0.00 0.00 41 1013.0
20260508144101 15 91 3.2 4.8 0.00 0.00 0.00 41 1013.0
20260508143100 14 55 3.2 4.8 0.00 0.00 0.00 41 1013.0
20260508141100 13 357 1.6 4.8 0.00 0.00 0.00 41 1013.0
20260508134101 12 355 0.0 3.2 0.00 0.00 0.00 41 1013.0
20260508133101 11 355 0.0 4.8 0.00 0.00 0.00 41 1013.0
20260508132101 11 355 1.6 4.8 0.00 0.00 0.00 41 1013.0
20260508131101 10 355 0.0 1.6 0.00 0.03 0.00 41 1013.0
20260508130103 10 355 0.0 3.2 0.00 0.03 0.00 41 1013.0
20260508125101 10 355 1.6 3.2 0.00 0.03 0.00 41 1013.0
20260508124101 9 355 1.6 4.8 0.00 0.03 0.00 41 1013.0
20260508123101 9 355 1.6 4.8 0.00 0.03 0.00 41 1013.0
20260508122101 8 355 0.0 0.0 0.00 0.03 0.00 41 1013.0
20260508121100 8 355 0.0 0.0 0.00 0.05 0.00 41 1013.0
20260508115101 7 355 0.0 0.0 0.00 0.05 0.00 41 1013.0
20260508113100 7 355 0.0 0.0 0.00 0.05 0.00 41 1013.0
20260508111100 7 355 0.0 0.0 0.00 0.05 0.00 41 1013.0
20260508105100 7 355 0.0 0.0 0.00 0.05 0.00 41 1013.0
20260508104100 7 355 0.0 0.0 0.00 0.08 0.00 41 1013.0
20260508103101 7 355 0.0 1.6 0.00 0.08 0.00 41 1013.0
20260508102101 7 295 0.0 0.0 0.00 0.08 0.00 41 1013.0
20260508101101 7 295 0.0 0.0 0.00 0.08 0.00 41 1013.0
20260508095101 7 295 0.0 0.0 0.00 0.08 0.00 41 1013.0
20260508094101 8 295 0.0 0.0 0.00 0.08 0.00 41 1013.0
20260508093101 8 295 0.0 0.0 0.00 0.08 0.00 41 1013.0
20260508092101 8 295 0.0 0.0 0.00 0.08 0.00 41 1013.0
20260508091101 8 295 0.0 0.0 0.00 0.08 0.00 41 1013.0
20260508090103 8 295 0.0 0.0 0.00 0.08 0.00 41 1013.0
20260508085101 8 295 0.0 0.0 0.00 0.08 0.00 41 1013.0
20260508084101 8 295 0.0 0.0 0.00 0.08 0.00 41 1013.0
20260508083101 8 295 0.0 0.0 0.00 0.08 0.00 41 1013.0
20260508082100 9 295 0.0 0.0 0.00 0.08 0.00 41 1013.0
20260508081101 9 295 0.0 0.0 0.00 0.08 0.00 41 1013.0
20260508075101 9 295 0.0 0.0 0.00 0.08 0.00 41 1013.0
20260508074100 9 295 0.0 0.0 0.00 0.08 0.00 41 1013.0
20260508073101 10 295 0.0 0.0 0.00 0.08 0.00 41 1013.0
20260508072101 10 295 0.0 0.0 0.00 0.10 0.00 41 1013.0
20260508071101 10 295 0.0 0.0 0.00 0.13 0.00 41 1013.0
20260508065100 10 295 0.0 0.0 0.00 0.13 0.00 41 1013.0
20260508064101 10 295 0.0 0.0 0.00 0.13 0.00 41 1013.0
20260508063101 10 295 0.0 0.0 0.00 0.13 0.00 41 1013.0
20260508062102 10 295 0.0 0.0 0.00 0.13 0.00 41 1013.0
20260508061101 11 295 0.0 0.0 0.00 0.13 0.00 41 1013.0
20260508060104 11 295 0.0 0.0 0.00 0.13 0.00 41 1013.0
20260508055101 11 295 0.0 0.0 0.00 0.13 0.00 41 1013.0
20260508054101 11 295 0.0 0.0 0.00 0.13 0.00 41 1013.0
20260508053101 11 295 0.0 0.0 0.00 0.13 0.00 41 1013.0
20260508052102 11 295 0.0 0.0 0.00 0.13 0.00 41 1013.0
20260508051101 11 295 0.0 0.0 0.00 0.15 0.00 41 1013.0
20260508050103 11 295 0.0 0.0 0.00 0.18 0.00 41 1013.0
20260508045101 11 295 0.0 0.0 0.00 0.20 0.00 41 1013.0
20260508044101 12 295 0.0 0.0 0.00 0.20 0.00 41 1013.0
20260508043101 12 295 0.0 0.0 0.00 0.20 0.00 41 1013.0
20260508042101 12 295 0.0 0.0 0.00 0.20 0.00 41 1013.0
20260508041101 12 295 0.0 0.0 0.00 0.20 0.00 41 1013.0
20260508035101 12 295 0.0 0.0 0.00 0.20 0.20 41 1013.0
20260508034101 12 295 0.0 0.0 0.00 0.20 0.20 41 1013.0
20260508032101 13 295 0.0 0.0 0.00 0.20 0.20 41 1013.0
20260508031101 13 295 0.0 0.0 0.00 0.20 0.20 41 1013.0
20260508030103 13 295 0.0 0.0 0.00 0.23 0.20 41 1013.0
20260508025101 13 294 0.0 0.0 0.00 0.23 0.20 41 1013.0
20260508024101 13 295 0.0 0.0 0.00 0.23 0.20 41 1013.0